カタログに戻る

STARLINK-32136

運用中通信VLEO
NORAD 61515·PAYLOAD·🇺🇸 United States

打ち上げ Oct 15, 2024 から Cape Canaveral Space Force Station

Loading…

次のパス (今後24時間)

TLE

最新Source: CelesTrak SupGP

元期: Sep 15, 2026, 03:02 UTC

1 61515C 24183G   26258.12687500  .00069311  00000+0  22283-2 0  2584
2 61515  53.1588 341.2542 0001070  97.1627 284.8780 15.31674942    11

AllMySatでSTARLINK-32136をリアルタイム追跡

Download on the App Store